Regional Weather Roundup
Issued by NWS Newport/Morehead, NC

Current Version | Previous Version | Graphics & Text | Print | Product List | Glossary Off
Versions: 1 2 3 4 5 6 7 8 9 10 11 12 13 14 15 16 17 18 19 20 21 22 23 24 25 26 27 28 29 30 31 32 33 34 35 36 37 38 39 40 41 42 43 44 45 46 47 48 49 50

081
ASUS42 KMHX 210125
RWRMHX
WEATHER ROUNDUP FOR EASTERN NORTH CAROLINA
NATIONAL WEATHER SERVICE NEWPORT/MOREHEAD CITY NC
800 PM EST MON FEB 20 2017

NOTE: "FAIR" INDICATES FEW OR NO CLOUDS BELOW 12,000 FEET
WITH NO SIGNIFICANT WEATHER AND/OR OBSTRUCTIONS TO VISIBILITY

NCZ015>017-031-032-045>047-102-103-210200-
NORTH COAST

CITY           SKY/WX    TMP DP  RH WIND       PRES   REMARKS
EDENTON        CLEAR     50  40  68 E3        30.24S
ELIZABETH CITY CLEAR     48  39  71 E6        30.24S
KITTY HAWK     NOT AVBL
MANTEO         CLEAR     48  42  80 E8        30.24R

$$

NCZ045>047-081-094-103-104-210200-
CENTRAL COAST

CITY           SKY/WX    TMP DP  RH WIND       PRES   REMARKS
FRISCO         CLEAR     52  41  66 NE6       30.21F

$$

NCZ095-097-098-100-101-210200-
SOUTHERN COAST

CITY           SKY/WX    TMP DP  RH WIND       PRES   REMARKS
BEAUFORT       PTCLDY    55  43  63 NE5       30.21S
CEDAR ISLAND   NOT AVBL
JACKSONVILLE   PTCLDY    55  48  77 SE3       30.20S
PINEY ISLAND   PTCLDY   N/A N/A N/A NE9       30.21F
WILMINGTON     MOCLDY    54  50  86 E3        30.19S


$$

NCZ011>013-027>030-043-044-078>080-089-090>093-098-210200-
COASTAL PLAIN

CITY           SKY/WX    TMP DP  RH WIND       PRES   REMARKS
AHOSKIE          N/A     54  40  60 CALM      30.23R
CLINTON        MOCLDY    57  44  62 CALM      30.19S
ELIZABETHTOWN  CLOUDY    61  46  57 SE3       30.19R
GOLDSBORO      MOCLDY    56  42  60 CALM      30.18S
GREENVILLE     PTCLDY    55  41  58 E3        30.22R
HAVELOCK       CLOUDY    53  40  61 E8        30.22S
KENANSVILLE    NOT AVBL
KINSTON        PTCLDY    50  43  76 CALM      30.20
NEW BERN       PTCLDY    54  42  64 E6        30.22S
RICHLANDS      PTCLDY    53  46  77 CALM      30.21R
ROCKY MOUNT    PTCLDY    53  43  68 CALM      30.20S
WASHINGTON     PTCLDY    53  42  65 E8        30.21S
WHITEVILLE     PTCLDY    62  46  56 S3        30.18S

$$

AMZ130-135-150-152-154-156-158-170-250-252-270-ANZ085-086-088-633-658-670-210200-
MARINE OBSERVATIONS

STATION/POSITION TIME  TEMP    WIND        PRES    WAVE   SWELL
                       AIR SEA DIR/SP/G            HT/PER HT/PER
                 (UTC) (F)     (DEG/KT/KT) (MB)    (FT/S) (FT/S)
CHESAPEAKE LIGHT NOT AVBL
64 E VA BEACH    0050   52 54   30/ 12/ 16 1023.8    3/ 5   2/ 6
DUCK             0100   49 49   60/  8/  9 1023.5
2 E DUCK         0100      49                N/A     2/ 6
OREGON INLET     0100   49 52   40/ 10/ 13 1023.5
13E OREGON INLT  NOT AVBL
HATTERAS CG      0100   53 57   40/  7/ 12 1022.8
DIAMOND BUOY     0050   59 65   30/ 17/ 21 1022.9    4/ 5   2/11
CAPE LOOKOUT     0100   57      50/ 13/ 15 1022.6
BEAUFORT LAB     0100   55 54   60/  4/  7 1022.1
30 SE NEW RVR IN 0108   62      80/ 14/ 17 1022.6
30 SE NEW RVR IN 0043      65                N/A     4/ 6
27 SE WRIGHTSVLE 0108   62 62   80/ 14/ 17 1021.5
5 SE WRIGHTSVLE  0108   58 56   70/  8/ 12 1022.3
225 S CAPE HAT   0050   70 71   20/ 17/ 19 1020.1    5/ 7
41 SE CHARLESTON 0050   66 68   40/  8/  8 1021.4    2/ 4   2/ 4

$$




USA.gov is the U.S. government's official web portal to all federal, state and local government web resources and services.